Regional Weather Roundup
Issued by NWS

Home | Current Version | Previous Version | Text Only | Print | Product List | Glossary On
Versions: 1 2 3 4 5 6 7 8 9 10 11 12 13 14 15 16 17 18 19 20 21 22 23 24 25 26 27 28 29 30 31 32 33 34 35 36 37 38 39 40 41 42 43 44 45 46 47 48 49 50
000
ASUS43 KTOP 192208
RWRKS

WEATHER ROUNDUP FOR KANSAS
NATIONAL WEATHER SERVICE GOODLAND KS
500 PM CDT SUN APR 19 2015

NOTE:  "FAIR" INDICATES FEW OR NO CLOUDS BELOW 12,000 FEET WITH NO
SIGNIFICANT WEATHER AND/OR OBSTRUCTIONS TO VISIBILITY.

KSZ001>006-013>018-027>032-041>047-192300-
NORTHWEST KANSAS

CITY           SKY/WX    TMP DP  RH WIND       PRES   REMARKS
GOODLAND       PTSUNNY   50  25  37 N22G35    29.98F
HAYS           CLOUDY    55  32  41 N23       29.88F
HILL CITY      CLOUDY    56  27  32 N25G32    29.91F
RUSSELL        CLOUDY    56  32  40 N25G38    29.86F
$$

KSZ061>065-074>080-084>089-192300-
SOUTHWEST KANSAS

CITY           SKY/WX    TMP DP  RH WIND       PRES   REMARKS
DODGE CITY     PTSUNNY   56  29  35 N25G35    29.91F
ELKHART          N/A    N/A N/A N/A MISG        N/A
GARDEN CITY    PTSUNNY   55  24  30 N31G39    29.94S
GREAT BEND     MOSUNNY   54  34  47 N26G32    29.87F
LIBERAL        MOSUNNY   61  32  33 N28G37    29.96F
PRATT          PTSUNNY   52  36  54 N26G37    29.88F
$$

KSZ066>073-081>083-090>101-192300-
SOUTHEAST KANSAS

CITY           SKY/WX    TMP DP  RH WIND       PRES   REMARKS
CHANUTE        TSTM      58  51  78 N23G36    29.66R
COFFEYVILLE    MOSUNNY   67  52  58 NW8       29.64F
HUTCHINSON     CLOUDY    52  38  58 NW28G36   29.84R
MEDICINE LODGE   N/A     52  36  54 N25G41    29.85S
NEWTON         CLOUDY    54  36  50 NW26G35   29.81R
PARSONS        MOSUNNY   69  54  58 W7        29.64F
WICHITA INTL   CLOUDY    55  39  54 NW33G39   29.80S
WICHITA JABRA  CLOUDY    54  40  59 N28G38    29.79R
WICHITA MCCONL CLOUDY    54  43  65 N25G35    29.79R
WINFIELD       LGT RAIN  53  49  86 N23G40    29.78R
$$

KSZ007>012-019>026-033>040-048>060-102>105-192300-
NORTHEAST KANSAS

CITY           SKY/WX    TMP DP  RH WIND       PRES   REMARKS
CONCORDIA      CLOUDY    51  33  50 N16G29    29.83S
EMPORIA        LGT RAIN  51  46  83 NW22G33   29.74R
LAWRENCE       CLOUDY    55  48  77 NW28G37   29.68R
MANHATTAN      LGT RAIN  51  40  65 N12G26    29.78S
MARYSVILLE     CLOUDY    52  37  58 N23G29    29.76S
OLATHE IND     CLOUDY    57  49  74 NW23G32   29.65R
OLATHE EXE     PTSUNNY   58  50  75 NW23G32   29.62S
SALINA         CLOUDY    53  39  59 NW24      29.83S
TOPEKA BILLARD CLOUDY    54  46  74 NW20G33   29.71R
TOPEKA FORBES  CLOUDY    53  48  83 NW20G29   29.71R
$$



USA.gov is the U.S. government's official web portal to all federal, state and local government web resources and services.